(81) Terpsichore
ephemeris date magn radius delta ra dec elong phase
Today18 Sep 202514.43.120 AU4.123 AU11h53m+00°57'3.1°1.0°
Opposition21 Apr 202613.53.398 AU2.397 AU13h49m-17°20'174.3°1.7°
(81) Terpsichore - 2025-09-18
astro.vanbuitenen.nl


 
-1 year
-1 month
-1 day
Now
+1 day
+1 month
+1 year

The interactive orbit chart above shows the body's path through the solar system and its position at the given date. Green and blue lines are shown perpendicular to the ecliptic plane: Green if the path is above the ecliptic plane, blue if it is below. (Left-click and drag to rotate the view; Right-click and drag to move the view; Use scroll wheel to zoom in our out.)

The orbital elements of Terpsichore are:

            e (Eccentricity)                : 0.2118771
            a (Semimajor axis)              : 2.8515770
            i (Inclination)                 : 7.80131
            Ω (Longitude of ascending node) : 0.89553
            ω (Argument of perihelion)      : 51.23215
            M (Mean anomaly)                : 77.70798
            Epoch                           : 2025 May 05

            L (Longitude of perihelion)     : 51.86732
            B (Latitude of perihelion)      : 6.07520
            P (Orbital period in years)     : 4.82            
        

The light curve chart below shows the estimated development of the minor planet's magnitude.


The all-sky chart below shows the path of the minor planet over the same period as the light curve. The current position is marked yellow.





The following chart shows the path of the minor planet in the next few days. The field of view is optimized for (~10x50) binoculars and finderscopes. A more printer-friendly version of the same chart can be found below.




Ephemerides:
Date       Time       RA (2000)    DEC (2000)    delta   radius  elong  phase   PA    magn
2025-09-18 00:00 UT   11 53 07.3   +00 57 24     4.123    3.120    3.1    1.0   110   14.4 
2025-09-18 07:27 UT   11 53 31.7   +00 54 25     4.124    3.121    2.9    0.9   110   14.4 
2025-09-19 00:00 UT   11 54 25.7   +00 47 47     4.126    3.122    2.4    0.8   109   14.4 
2025-09-20 00:00 UT   11 55 44.1   +00 38 11     4.128    3.124    1.8    0.6   108   14.4 
2025-09-21 00:00 UT   11 57 02.4   +00 28 35     4.129    3.126    1.2    0.4   107   14.3 
2025-09-22 00:00 UT   11 58 20.6   +00 18 59     4.131    3.127    0.6    0.2   102   14.3 
2025-09-23 00:00 UT   11 59 38.8   +00 09 24     4.133    3.129    0.1    0.0    13   14.3 
2025-09-24 00:00 UT   12 00 56.9   +00 00 11     4.134    3.131    0.6    0.2   302   14.3 
2025-09-25 00:00 UT   12 02 15.0   +00 09 46     4.135    3.133    1.3    0.4   297   14.3 
2025-09-26 00:00 UT   12 03 33.0   +00 19 20     4.136    3.134    1.9    0.6   295   14.4 
2025-09-27 00:00 UT   12 04 50.9   +00 28 53     4.137    3.136    2.5    0.8   294   14.4 
2025-09-28 00:00 UT   12 06 08.8   +00 38 26     4.138    3.138    3.1    1.0   294   14.4 
2025-09-29 00:00 UT   12 07 26.6   +00 47 58     4.139    3.140    3.7    1.2   294   14.4 
2025-09-30 00:00 UT   12 08 44.3   +00 57 30     4.139    3.141    4.4    1.4   293   14.4 
2025-10-01 00:00 UT   12 10 02.0   -01 07 01     4.139    3.143    5.0    1.6   293   14.5 
2025-10-02 00:00 UT   12 11 19.5   -01 16 31     4.139    3.145    5.6    1.8   293   14.5 
2025-10-03 00:00 UT   12 12 37.0   -01 26 01     4.139    3.146    6.2    2.0   293   14.5 
2025-10-04 00:00 UT   12 13 54.4   -01 35 29     4.139    3.148    6.9    2.2   293   14.5 
2025-10-05 00:00 UT   12 15 11.7   -01 44 57     4.139    3.150    7.5    2.4   293   14.5 
2025-10-06 00:00 UT   12 16 29.0   -01 54 25     4.138    3.152    8.1    2.6   293   14.5 
2025-10-07 00:00 UT   12 17 46.1   -02 03 51     4.137    3.153    8.7    2.8   293   14.6 
2025-10-08 00:00 UT   12 19 03.2   -02 13 16     4.137    3.155    9.4    3.0   292   14.6 
2025-10-09 00:00 UT   12 20 20.2   -02 22 41     4.136    3.157   10.0    3.1   292   14.6 
2025-10-10 00:00 UT   12 21 37.0   -02 32 05     4.134    3.158   10.6    3.3   292   14.6 
2025-10-11 00:00 UT   12 22 53.8   -02 41 28     4.133    3.160   11.3    3.5   292   14.6 


    Terminology:
            
    delta:  distance between minor planet and earth in AU
    radius: distance between minor planet and sun in AU
    magn:   magnitude (brightness) estimate    
    ra:     right ascension in hours (24h = 360deg)
    dec:    declination in degrees
    elong:  elongation in degrees (angle sun-earth-minor planet)    
    phase:  phase angle in degrees (angle sun-minor planet-earth)        
    AU:     Astronomical Unit (mean distance between earth and sun: 149597870.7 km
    

Orbital elements provided by the MPC (Minor Planet Center).
Calculations by a modified version of AAPlus, a C# implementation of the AA+ project by PJ Naughter from the algorithms presented in the book "Astronomical Algorithms" by Jean Meeus.
NGC2000 dso catalog and star labels from VizieR as provided by the Strasbourg astronomical Data Center.
Tycho2 catalog from the ESO archive.